Regional Weather Roundup
Issued by NWS Goodland, KS

Home | Current Version | Previous Version | Graphics & Text | Print | Product List | Glossary Off
Versions: 1 2 3 4 5 6 7 8 9 10 11 12 13 14 15 16 17 18 19 20 21 22 23 24 25 26 27 28 29 30 31 32 33 34 35 36 37 38 39 40 41 42 43 44 45 46 47 48 49 50

000
ASUS43 KGLD 051408
RWRGLD

GOODLAND FORECAST AREA HOURLY WEATHER ROUNDUP
NATIONAL WEATHER SERVICE GOODLAND KS
800 AM MDT SUN JUL 05 2015

...OFFICIAL OBSERVATIONS...

CITY           SKY/WX    TMP DP  RH WIND       PRES   REMARKS
GOODLAND KS    SUNNY     74  62  66 SW9       29.89S
HILL CITY KS   SUNNY     83  65  54 S8G17     29.84R
IMPERIAL NEB   SUNNY     75  63  66 SW12      29.86F
MCCOOK NEB     SUNNY     83  62  49 S17G24    29.83S
AKRON CO       MOSUNNY   76  53  44 SW9       29.94S
BURLINGTON CO  SUNNY     74  58  57 SW8       29.93S
LIMON CO       SUNNY     71  56  58 CALM      30.01S
$$

...UNOFFICIAL OBSERVATIONS...

CITY           SKY/WX    TMP DP  RH WIND       PRES   REMARKS
COLBY KS       SUNNY     79  64  61 S13       29.88R
GOVE KS          N/A     79  32  18 MISG        N/A
NORTON KS      SUNNY     79  61  53 SE9       29.84S
SHARON SPRINGS   N/A     74  63  69 S12G18      N/A
KIT CARSON CO    N/A     72  58  61 MISG        N/A
$$



USA.gov is the U.S. government's official web portal to all federal, state and local government web resources and services.